STARLINK-35068 (65438 NORAD) Tracking and Keplerian Element Data

This shows tracking and keplerian element data for the satellite.

Feedback or suggestion? Click here.




ElementValue
Catalog65438
NameSTARLINK-35068
Epoch Orbit1767
Epoch Day354.14336077
Epoch Year2025
RAAN205.9136
Inclination97.6019
Eccentricity0.0001871
Argument of Perigee76.4247
Mean Anonmoly283.7188
Mean Motion15.05650988
Decay Rate1.89E-05
L11 65438U 25194E 25354.14336077 .00001890 00000+0 13518-3 0 9995
L22 65438 97.6019 205.9136 0001871 76.4247 283.7188 15.05650988 17678



Live tracking and technical data element details for STARLINK-35068 (NORAD 65438). STARLINK-35068 can be tracked NOW for your location showing map with azimuth and elevation plus other details from your city location.







IsCatalogInMostPopularTable: catalog: 65438, numindb: 3
Update: records affected: 1



GetName: 65438 STARLINK-35068

Hit Count: updated at: Mon, 09 Feb 2026 07:49:51 GMT